Regional Weather Roundup
Issued by NWS

Home | Current Version | Previous Version | Text Only | Print | Product List | Glossary Off
Versions: 1 2 3 4 5 6 7 8 9 10 11 12 13 14 15 16 17 18 19 20 21 22 23 24 25 26 27 28 29 30 31 32 33 34 35 36 37 38 39 40 41 42 43 44 45 46 47 48 49 50

000
ASUS45 KABQ 292201
RWRNM
WEATHER ROUNDUP FOR NEW MEXICO
NATIONAL WEATHER SERVICE ALBUQUERQUE NM
400 PM MDT SUN MAR 29 2015

NOTE: "FAIR" MEANS FEW OR NO CLOUDS BELOW 12,000 FEET AGL WITH NO
       SIGNIFICANT WEATHER OR OBSTRUCTIONS TO VISION.

      THIS PRODUCT IS RELEASED AS TWO VERSIONS.  ONE VERSION NEAR
      THE TOP OF THE HOUR CONTAINING PRELIMINARY DATA FROM ALBUQUERQUE
      AND OTHER STATIONS.  A FINAL VERSION WITH ADDITIONAL DATA IS
      ISSUED ABOUT 10 MINUTES AFTER THE HOUR.

NMZ501-503-504-510>518-292300-
NORTHWEST PLATEAU/NORTHCENTRAL MOUNTAINS

CITY           SKY/WX    TMP DP  RH WIND       PRES   REMARKS
FARMINGTON     SUNNY     76  12   8 W13G22    30.15F
SANTA FE       MOSUNNY   72  11   9 SE6       30.19F
TAOS           PTSUNNY   70  19  14 W8G16     30.22F
ANGEL FIRE     MOCLDY    56  24  29 S13       30.32R

$$
NMZ402-403-502-505>509-292300-
WESTCENTRAL MOUNTAINS/SOUTHWEST MOUNTAINS

CITY           SKY/WX    TMP DP  RH WIND       PRES   REMARKS
GALLUP         MOSUNNY   73   7   7 VRB3      30.21F
GRANTS         MOSUNNY   72  12  10 SE6G16    30.21F

$$
NMZ407-409-411-412-292300-
SOUTHERN DESERTS

CITY           SKY/WX    TMP DP  RH WIND       PRES   REMARKS
DEMING         CLOUDY    82  15   8 VRB7      30.13F
ALAMOGORDO     PTSUNNY   82   7   5 NW6       30.11F
T OR C         CLOUDY    81  10   7 S8        30.11F

$$
NMZ519>523-292300-
CENTRAL VALLEYS/CENTRAL HIGHLANDS

CITY           SKY/WX    TMP DP  RH WIND       PRES   REMARKS
ALBUQUERQUE    PTSUNNY   77  18  11 CALM      30.15F
DOUBLE EAGLE   MOSUNNY   75  14   9 W8G17     30.18F
CLINES CORNERS PTSUNNY   65  21  18 SE18G30   30.25S
BELEN          FAIR      79  14   8 E6        30.14F
SOCORRO        FAIR      82  15   8 CALM      30.11F

$$
NMZ524>526-539-540-292300-
SOUTHCENTRAL MOUNTAINS

CITY           SKY/WX    TMP DP  RH WIND       PRES   REMARKS
RUIDOSO        NOT AVBL

$$
NMZ527>531-292300-
NORTHEAST HIGHLANDS/NORTHEAST PLAINS

CITY           SKY/WX    TMP DP  RH WIND       PRES   REMARKS
LAS VEGAS      PTSUNNY   68  23  18 SE18G26   30.25F
RATON          MOSUNNY   67  24  19 S8        30.22F
CLAYTON        CLOUDY    67  22  18 NE15G22   30.23F

$$
NMZ532>537-292300-
EASTCENTRAL PLAINS

CITY           SKY/WX    TMP DP  RH WIND       PRES   REMARKS
TUCUMCARI      SUNNY     74  23  15 E16G29    30.18F
CANNON AFB     NOT AVBL
CLOVIS AIRPORT SUNNY     73  30  20 NE20G26   30.18S

$$
NMZ028-029-538-292300-
SOUTHEAST PLAINS

CITY           SKY/WX    TMP DP  RH WIND       PRES   REMARKS
ROSWELL        SUNNY     86  21   9 E13       30.09S
ARTESIA        SUNNY     86  27  11 NE9       30.08S
CARLSBAD       SUNNY     89  21   8 NE10      30.04F
HOBBS          SUNNY     84  27  12 N8G20     30.10F


$$



USA.gov is the U.S. government's official web portal to all federal, state and local government web resources and services.